Temperature
20 21 20 20 20 20 20 20 20 19 19 19 19 19 19 19 19 19 19 19 19 19 19 19 19 19 19 19 19 19 19 18 18 18 18 18 18 18 18 18 18 18 18
21 21 21 20 20 20 20 20 20 19 19 19 19 19 19 19 19 19 19 19 19 19 19 19 19 19 19 19 19 19 19 19 18 18 18 18 18 18 18 18 18 18 18
21 21 21 20 20 20 20 20 20 19 19 19 19 19 19 19 19 19 19 19 19 19 19 19 19 19 19 19 19 19 18 18 18 18 18 18 18 18 18 18 18 18 18
21 21 21 20 20 20 20 20 20 19 19 19 19 19 19 19 19 19 19 19 19 19 19 19 19 19 19 19 18 18 18 18 18 18 18 18 18 18 18 18 18 18 18
21 21 21 20 20 20 20 20 19 19 19 19 19 19 19 19 19 19 19 19 19 19 19 19 19 19 18 18 18 18 18 18 18 18 18 18 18 18 18 18 18 18 18
21 21 20 20 20 20 20 19 19 19 19 19 19 19 19 19 18 18 19 19 19 19 19 19 19 19 19 18 18 18 18 18 18 18 18 18 18 18 18 18 18 18 18
21 21 20 20 20 20 20 19 19 19 19 19 19 19 19 19 18 18 18 18 18 18 18 19 19 19 19 18 18 18 18 18 18 18 18 18 18 18 18 18 18 18 18
21 21 20 20 20 20 20 19 19 19 19 19 19 19 19 18 18 18 19 19 19 19 18 19 19 19 18 18 18 18 18 18 18 18 18 18 18 18 18 18 18 18 18
21 21 20 20 20 20 19 19 19 19 19 19 19 19 19 18 18 18 19 19 19 19 19 19 19 19 18 18 18 18 18 18 18 18 18 18 18 18 18 18 18 18 18
21 20 20 20 20 20 20 19 19 19 19 19 19 19 19 18 18 18 19 19 18 18 19 19 19 19 19 18 18 18 18 18 18 18 18 18 18 18 18 18 18 18 18
20 20 20 20 20 20 20 19 19 19 19 19 19 19 19 19 19 19 19 19 18 19 19 19 19 19 19 18 18 18 18 18 18 18 18 18 18 18 18 18 18 18 18
20 20 20 20 20 20 19 19 19 19 19 19 19 19 19 19 19 19 18 18 18 19 19 18 19 19 19 19 18 18 18 18 18 18 18 18 18 18 18 18 18 18 17
20 20 20 20 20 20 19 19 19 19 19 19 19 19 19 19 19 19 19 19 18 19 19 18 18 19 19 18 18 18 18 18 18 18 18 18 18 18 18 18 18 18 17
20 20 20 20 20 20 19 19 19 19 19 19 19 19 19 19 19 19 19 19 19 19 19 19 18 18 18 18 18 18 18 18 18 18 18 18 18 18 18 18 18 18 17
21 20 20 20 20 20 20 19 19 19 19 19 19 19 19 19 19 19 19 19 19 19 19 18 18 18 18 18 18 18 18 18 18 18 18 18 18 18 18 18 18 17 17
21 21 20 20 20 20 20 19 19 19 19 19 19 19 19 19 19 19 19 19 19 19 19 19 18 18 18 18 18 18 18 18 18 18 18 18 18 18 18 18 17 17 17
21 21 21 20 20 20 20 20 19 19 19 19 19 19 19 19 19 19 19 18 18 19 19 18 18 18 18 18 18 18 18 18 18 18 18 18 18 18 18 18 17 17 17
21 21 21 20 20 20 20 20 19 19 19 19 19 19 19 19 19 19 19 19 18 18 19 18 18 18 18 18 18 18 19 18 18 18 18 18 18 18 18 18 17 17 17
21 21 21 21 20 20 20 19 19 19 19 19 19 19 19 19 19 19 19 19 19 19 19 18 18 18 19 19 18 18 18 18 18 18 18 18 18 18 18 18 18 17 17
22 21 21 21 20 20 20 19 19 19 19 19 19 19 19 19 19 19 19 19 18 18 19 18 18 18 18 18 18 18 18 18 18 18 18 18 18 18 18 18 18 17 17
22 21 21 21 20 20 20 19 19 19 19 19 19 19 19 19 19 19 19 18 18 18 18 18 18 18 18 18 18 18 18 18 18 18 18 18 18 18 18 18 18 17 17
22 21 21 21 20 20 20 19 19 19 19 19 19 19 19 19 19 19 18 18 18 18 18 18 18 18 18 18 18 18 18 18 18 18 18 18 18 18 18 17 17 17 17
22 21 21 20 20 20 20 19 19 19 19 19 19 19 18 18 18 18 18 18 18 18 18 18 18 18 18 18 18 18 18 18 18 18 18 18 18 18 17 17 17 17 17
21 21 21 21 20 20 20 19 19 19 19 19 18 18 18 18 18 18 18 18 18 18 18 18 18 18 18 18 18 18 18 17 17 17 17 17 17 17 17 17 17 17 17
21 21 21 20 20 20 19 19 19 19 19 19 18 18 18 18 18 18 18 18 18 18 18 18 18 17 17 17 17 17 17 17 17 17 17 17 17 17 17 17 17 17 17
21 21 21 20 20 20 19 19 19 19 19 19 19 18 18 18 18 18 18 18 18 18 18 18 17 17 17 17 17 17 17 17 17 17 17 17 17 17 17 17 17 17 17
Wind_Speed
3 5 8 7 7 8 9 9 10 10 10 11 11 11 11 10 10 10 10 10 10 11 10 10 9 9 9 9 9 9 9 9 10 10 10 10 10 10 10 10 11 9 11
6 7 8 7 7 8 9 10 10 11 11 11 11 11 11 11 10 10 9 9 10 10 9 9 9 8 9 9 9 9 8 9 9 9 9 10 10 10 10 10 11 9 12
6 7 8 8 8 10 10 10 10 11 11 11 11 11 11 10 10 9 9 9 9 9 9 9 8 8 8 8 8 8 8 8 8 8 8 7 8 9 10 10 11 12 12
7 7 8 10 10 11 11 10 11 11 11 11 11 11 11 10 10 9 9 8 8 8 8 8 8 7 8 8 8 8 7 7 7 7 6 7 7 9 10 10 11 12 12
5 7 9 11 10 11 11 11 11 11 11 10 10 10 11 10 9 9 8 7 7 7 7 7 8 7 8 9 8 7 7 7 6 6 6 7 7 9 10 10 10 11 11
5 6 9 12 11 11 10 10 10 10 10 9 9 10 11 10 9 8 7 7 7 7 7 7 7 8 8 9 8 7 7 6 5 5 6 7 8 10 11 11 11 11 11
5 5 8 11 10 10 10 10 10 10 10 10 10 10 10 9 8 8 7 7 7 7 7 7 7 8 8 9 9 8 8 6 4 4 6 7 9 12 12 12 11 12 11
7 6 7 9 10 9 9 9 9 10 9 10 10 10 9 9 8 7 7 7 7 6 6 6 7 8 8 9 9 8 7 5 3 4 6 7 11 12 12 13 13 13 12
6 5 4 5 7 7 7 8 8 9 9 9 9 8 8 8 7 6 6 6 7 6 6 6 7 8 8 8 8 7 6 5 3 4 6 7 11 12 12 13 13 13 12
5 4 4 3 4 4 5 7 9 9 8 8 7 7 6 6 5 5 4 5 6 6 6 6 6 6 7 7 6 6 5 5 4 5 5 8 12 12 12 12 12 12 12
5 3 3 3 2 3 4 6 7 8 7 6 6 6 5 3 3 3 3 4 4 4 5 5 6 6 6 6 5 5 4 3 4 4 6 10 12 13 12 12 12 12 12
4 3 2 3 2 2 3 4 4 5 4 4 3 3 2 2 2 3 3 3 3 2 3 3 4 4 3 3 4 4 3 3 4 4 6 11 13 13 13 12 12 12 12
4 4 3 3 3 3 2 4 3 3 3 3 3 2 3 2 2 1 1 1 1 1 1 1 1 0 1 1 2 2 3 3 3 5 7 11 12 13 12 11 12 12 12
5 4 3 3 3 3 3 3 3 3 3 3 2 3 3 2 2 1 1 0 0 0 1 1 1 1 1 1 2 2 3 3 3 4 7 11 12 11 11 10 11 11 11
6 4 4 4 4 3 3 3 4 3 3 3 3 3 4 3 2 1 1 1 0 1 1 1 1 1 1 1 1 2 3 4 5 5 6 10 11 10 10 10 10 10 11
5 5 4 4 4 4 4 3 3 3 3 3 3 3 4 3 2 2 2 1 0 1 1 1 1 1 1 1 1 1 2 3 4 5 6 8 10 11 10 10 9 10 10
5 4 4 4 4 4 4 4 3 3 4 3 3 3 4 3 2 2 2 1 0 0 1 2 2 2 2 1 0 1 2 2 3 4 6 7 7 9 10 10 9 9 9
6 5 4 5 5 4 3 3 3 3 4 3 3 3 4 4 3 2 2 1 0 1 1 2 2 2 1 1 0 1 1 1 2 3 4 5 6 6 8 11 10 10 10
6 6 4 4 4 4 3 3 3 3 3 3 3 2 3 3 3 2 2 1 1 1 1 1 2 2 1 0 0 1 1 1 1 3 2 3 5 6 6 9 10 10 11
6 5 5 4 4 4 3 3 3 3 2 2 2 2 3 2 2 2 2 1 2 2 2 1 1 1 1 1 0 1 1 1 0 1 2 2 2 4 5 5 5 6 9
6 5 4 4 3 3 3 2 2 1 1 1 1 2 2 2 2 2 2 1 2 2 1 1 1 1 1 1 2 2 3 2 0 1 1 1 2 2 3 4 3 3 4
7 5 4 4 3 3 2 2 2 2 1 1 1 1 2 2 2 2 2 2 2 2 2 1 1 1 1 1 1 1 2 3 3 1 0 1 1 1 2 4 4 4 3
7 6 5 4 4 3 3 3 2 2 2 2 1 0 0 1 1 2 2 2 1 2 1 0 1 2 0 1 1 2 2 2 2 3 1 0 0 1 1 2 3 4 4
7 7 5 5 4 3 3 3 4 3 2 1 1 0 0 1 1 2 2 2 1 1 1 0 1 1 2 0 1 1 1 2 1 1 3 2 1 1 1 2 3 3 4
8 7 6 5 4 3 3 3 3 2 1 1 1 1 1 1 1 1 1 1 1 1 1 1 1 2 2 1 0 1 1 1 1 2 1 3 2 1 1 1 1 2 3
7 6 6 5 4 3 4 3 4 3 2 2 2 1 1 1 2 1 1 1 1 1 0 0 1 1 1 1 1 1 1 0 1 1 2 1 1 2 2 1 1 2 2
Wind_Direction
199 198 183 169 160 156 156 156 153 148 146 149 148 145 143 141 141 139 140 143 144 147 152 154 154 157 160 158 158 159 159 160 160 165 167 169 173 171 169 170 168 161 159
184 183 175 161 162 163 158 154 152 151 149 148 149 148 145 145 145 144 144 146 146 149 154 157 160 164 164 165 165 162 162 165 169 171 173 175 176 178 177 174 171 164 164
165 170 163 151 145 150 150 147 146 149 148 147 146 147 146 147 148 147 146 147 152 154 156 164 169 171 171 169 169 168 167 170 175 179 182 180 179 182 182 178 174 169 169
160 161 156 148 140 138 142 142 141 143 145 147 149 149 150 151 150 150 152 153 158 162 165 169 176 177 174 176 178 177 178 180 185 189 186 185 184 186 183 180 179 175 175
143 156 157 146 142 140 139 139 141 143 147 150 153 154 154 155 155 156 160 164 167 171 175 178 182 184 183 183 184 185 188 192 196 197 185 183 184 187 186 183 181 181 179
135 155 153 143 142 143 143 143 143 146 149 150 151 154 155 159 161 164 170 175 179 182 187 188 190 192 192 192 194 195 201 205 206 195 182 180 182 185 186 187 185 183 183
139 155 153 146 146 147 147 148 149 150 150 148 149 152 155 163 168 174 181 185 187 191 195 197 198 202 201 201 204 206 212 216 207 189 185 183 185 186 187 191 190 188 186
141 150 156 150 147 148 149 152 154 153 151 146 147 151 158 167 174 178 186 190 191 193 197 203 210 213 210 210 214 216 215 218 210 195 186 186 187 187 190 191 190 188 187
125 135 141 149 151 150 151 156 158 157 154 149 149 156 160 170 175 180 190 196 195 197 201 209 216 218 217 216 218 220 216 203 192 185 191 189 187 189 192 192 191 191 191
109 119 122 134 143 156 161 157 157 157 151 145 145 144 146 156 169 181 197 200 200 203 208 214 220 221 215 214 213 214 212 192 182 185 190 189 187 190 194 195 194 194 194
93 91 108 117 127 138 145 148 151 147 145 143 137 133 137 150 164 189 195 194 200 210 215 217 223 220 212 204 203 209 203 177 173 181 185 184 185 190 195 197 197 199 199
105 105 106 120 123 128 132 129 137 136 136 135 126 131 133 133 144 152 177 170 181 206 219 219 222 212 205 201 210 208 188 168 176 188 192 191 192 194 195 197 198 201 202
128 114 108 119 120 122 125 123 130 137 134 130 125 124 127 117 129 131 173 158 185 188 248 243 247 227 170 205 216 190 173 159 176 191 191 192 193 195 195 195 199 201 201
114 112 111 116 107 117 121 122 129 130 132 133 135 119 117 110 100 121 144 203 193 195 65 69 99 97 130 181 182 173 166 171 177 187 188 190 195 196 195 195 200 202 199
113 107 107 103 93 100 107 108 111 129 133 130 122 111 112 112 106 117 135 120 109 104 104 83 78 79 67 109 155 149 159 169 174 180 183 188 191 194 197 201 204 205 201
122 121 111 99 92 94 101 101 105 117 117 118 112 115 118 115 118 113 98 89 118 170 147 129 114 109 100 110 159 164 179 179 179 176 178 185 195 196 196 200 205 206 206
131 124 118 116 91 92 97 100 100 104 112 115 111 113 118 115 116 115 106 95 141 164 130 101 84 87 109 119 65 239 217 201 190 191 189 190 197 204 206 205 207 206 208
128 125 119 113 97 87 85 82 79 88 104 109 115 112 117 118 118 122 108 107 151 112 104 106 99 91 94 113 252 273 270 230 209 199 192 192 195 205 211 210 210 210 210
133 129 118 109 104 94 82 83 74 77 94 103 102 100 109 117 117 119 99 96 117 96 78 89 92 121 124 86 226 241 258 241 229 209 202 200 200 206 209 213 214 215 213
136 128 123 112 104 98 86 74 65 58 66 83 101 110 119 123 121 118 100 56 69 73 49 55 78 77 156 195 253 342 297 279 192 197 206 188 185 197 200 198 204 216 215
135 125 124 119 118 107 102 98 89 70 65 81 93 101 109 107 105 115 110 79 76 91 98 85 73 48 18 41 53 7 1 8 55 221 198 167 185 194 186 182 176 179 200
145 140 134 138 137 130 143 147 140 144 151 139 119 79 97 102 99 116 119 117 105 90 62 50 71 45 1 46 98 70 360 353 353 358 39 170 196 184 188 188 175 179 199
146 148 143 147 141 142 132 115 105 69 43 39 39 26 45 125 117 100 124 126 113 108 107 53 92 100 26 357 83 131 139 242 307 333 324 305 158 160 202 192 188 194 201
159 154 145 143 144 145 128 127 131 133 144 199 191 149 8 50 75 92 101 117 109 92 93 37 98 115 121 19 338 34 165 169 167 304 329 338 310 209 228 222 213 201 204
164 160 156 146 146 140 123 129 130 132 150 126 88 65 34 21 46 67 77 106 110 100 103 72 69 85 103 117 119 317 15 36 115 161 278 324 344 323 260 238 221 207 209
166 162 157 147 147 144 131 128 131 133 122 101 86 88 44 16 13 16 61 94 119 101 91 155 104 82 81 90 101 89 113 144 222 164 197 263 297 304 306 299 251 219 210
Height
1495 1493 1491 1489 1488 1487 1487 1488 1489 1489 1491 1493 1494 1496 1497 1498 1500 1501 1503 1504 1505 1506 1507 1507 1509 1509 1510 1511 1512 1513 1514 1515 1516 1517 1518 1519 1521 1522 1523 1524 1525 1526 1527
1494 1492 1490 1488 1485 1484 1485 1486 1487 1488 1490 1491 1493 1495 1496 1498 1499 1501 1502 1503 1504 1505 1506 1507 1508 1509 1509 1510 1511 1512 1513 1514 1514 1516 1517 1518 1519 1520 1521 1522 1524 1525 1526
1494 1492 1490 1487 1483 1481 1484 1486 1486 1487 1489 1490 1492 1493 1495 1497 1499 1500 1502 1503 1504 1504 1505 1506 1507 1508 1509 1509 1510 1511 1512 1512 1513 1514 1515 1516 1517 1519 1520 1521 1523 1524 1525
1493 1492 1491 1488 1485 1484 1485 1486 1487 1487 1488 1489 1491 1492 1494 1496 1498 1499 1501 1502 1503 1504 1505 1505 1506 1507 1508 1508 1509 1510 1510 1511 1511 1512 1513 1514 1515 1517 1518 1520 1521 1523 1524
1494 1493 1492 1490 1488 1487 1487 1487 1488 1488 1488 1489 1489 1491 1493 1495 1497 1499 1500 1501 1502 1503 1504 1504 1505 1506 1507 1508 1508 1509 1509 1509 1509 1510 1510 1511 1513 1515 1517 1518 1520 1522 1523
1494 1493 1492 1491 1489 1489 1488 1488 1488 1488 1488 1487 1487 1488 1492 1495 1497 1499 1500 1501 1502 1502 1503 1504 1504 1505 1506 1506 1507 1507 1507 1507 1507 1506 1507 1509 1510 1513 1515 1517 1518 1520 1522
1495 1494 1493 1491 1490 1489 1489 1489 1490 1489 1489 1487 1487 1488 1492 1495 1497 1499 1500 1501 1501 1502 1503 1503 1503 1504 1505 1505 1505 1505 1505 1505 1504 1504 1504 1506 1508 1511 1513 1515 1517 1519 1520
1495 1494 1493 1492 1491 1490 1490 1490 1490 1490 1490 1489 1489 1491 1494 1496 1498 1499 1500 1501 1501 1502 1502 1502 1502 1503 1503 1503 1504 1504 1504 1503 1503 1502 1502 1504 1506 1509 1512 1514 1516 1517 1519
1496 1494 1493 1492 1492 1491 1490 1490 1490 1491 1492 1492 1493 1494 1496 1497 1499 1500 1500 1500 1501 1501 1501 1501 1501 1501 1501 1502 1502 1502 1502 1502 1502 1502 1502 1503 1506 1509 1511 1513 1515 1516 1517
1497 1496 1495 1494 1493 1492 1491 1490 1491 1492 1493 1494 1495 1496 1497 1498 1499 1500 1501 1501 1501 1501 1501 1501 1501 1500 1500 1501 1501 1502 1502 1502 1501 1502 1503 1504 1506 1508 1510 1512 1513 1514 1516
1498 1497 1496 1495 1494 1493 1492 1492 1492 1493 1494 1495 1496 1497 1498 1499 1500 1500 1501 1501 1501 1501 1501 1501 1500 1500 1500 1500 1501 1501 1501 1501 1502 1503 1504 1505 1507 1508 1510 1511 1512 1513 1514
1499 1498 1497 1496 1495 1494 1493 1493 1494 1495 1496 1497 1497 1498 1499 1500 1500 1501 1501 1501 1501 1501 1500 1500 1500 1501 1501 1501 1501 1501 1501 1501 1502 1503 1504 1505 1507 1508 1510 1510 1511 1512 1513
1501 1500 1499 1497 1496 1495 1495 1495 1496 1497 1497 1498 1499 1499 1500 1500 1501 1501 1501 1501 1501 1501 1500 1500 1500 1501 1501 1501 1501 1502 1502 1502 1502 1503 1504 1505 1506 1508 1509 1509 1510 1511 1512
1502 1501 1500 1499 1497 1497 1496 1497 1497 1498 1498 1499 1500 1500 1501 1501 1501 1502 1502 1502 1502 1501 1501 1501 1501 1501 1501 1501 1501 1501 1502 1502 1503 1503 1504 1505 1506 1507 1508 1509 1509 1510 1511
1503 1502 1501 1500 1499 1498 1497 1498 1498 1499 1500 1500 1501 1502 1502 1502 1502 1502 1502 1502 1502 1502 1502 1502 1502 1502 1502 1502 1502 1502 1503 1503 1503 1504 1504 1505 1505 1506 1507 1507 1508 1509 1509
1505 1504 1503 1502 1501 1500 1499 1499 1500 1500 1501 1502 1503 1503 1503 1503 1503 1503 1503 1503 1503 1503 1503 1503 1503 1503 1503 1503 1503 1503 1503 1503 1504 1504 1504 1504 1504 1505 1506 1506 1506 1507 1507
1505 1505 1504 1503 1503 1502 1501 1501 1501 1502 1502 1503 1503 1504 1504 1504 1504 1504 1503 1503 1503 1503 1503 1503 1503 1503 1503 1503 1503 1503 1504 1504 1504 1504 1504 1504 1504 1504 1504 1504 1505 1505 1505
1506 1506 1505 1505 1504 1504 1503 1503 1503 1503 1504 1504 1505 1505 1505 1505 1505 1504 1504 1504 1503 1503 1503 1503 1503 1503 1503 1503 1503 1504 1504 1504 1504 1503 1503 1504 1504 1504 1503 1503 1503 1503 1504
1507 1507 1507 1506 1506 1506 1505 1505 1505 1505 1505 1505 1506 1506 1506 1506 1505 1505 1505 1504 1504 1504 1503 1503 1503 1503 1503 1503 1504 1504 1504 1504 1504 1504 1503 1503 1503 1502 1502 1502 1502 1502 1502
1508 1508 1508 1508 1507 1507 1507 1507 1506 1506 1506 1507 1507 1507 1507 1507 1506 1506 1505 1505 1504 1504 1504 1503 1503 1503 1503 1503 1503 1504 1504 1503 1503 1503 1502 1502 1502 1501 1501 1501 1501 1501 1501
1508 1508 1508 1508 1508 1508 1508 1507 1507 1507 1507 1507 1507 1507 1507 1507 1506 1506 1505 1505 1504 1504 1504 1503 1503 1503 1503 1503 1503 1503 1503 1503 1502 1502 1502 1501 1501 1501 1500 1500 1500 1500 1500
1508 1508 1509 1509 1508 1508 1508 1508 1508 1508 1507 1508 1507 1507 1507 1507 1506 1506 1506 1505 1505 1504 1504 1504 1503 1503 1503 1502 1502 1502 1502 1503 1502 1502 1501 1500 1500 1500 1500 1500 1499 1499 1499
1508 1508 1509 1509 1509 1509 1509 1509 1509 1508 1508 1508 1507 1507 1507 1507 1506 1506 1505 1505 1504 1504 1504 1503 1503 1503 1502 1502 1502 1502 1502 1501 1501 1501 1500 1500 1500 1500 1499 1499 1499 1499 1498
1507 1508 1508 1509 1509 1509 1509 1509 1509 1508 1507 1507 1507 1507 1507 1506 1506 1506 1505 1505 1504 1504 1503 1503 1503 1502 1502 1502 1502 1502 1502 1501 1501 1500 1500 1499 1499 1499 1499 1499 1498 1498 1497
1506 1507 1508 1508 1509 1509 1509 1509 1508 1508 1508 1507 1507 1507 1506 1506 1506 1505 1505 1504 1504 1503 1503 1502 1502 1501 1501 1501 1501 1501 1500 1500 1500 1499 1499 1499 1499 1498 1498 1498 1497 1497 1496
1506 1507 1507 1508 1508 1508 1508 1508 1508 1507 1507 1507 1506 1506 1506 1505 1505 1505 1504 1503 1503 1502 1502 1501 1501 1500 1500 1500 1500 1500 1499 1499 1499 1498 1498 1497 1497 1497 1497 1496 1496 1495 1495